Citrix Systems EBITDA Margin 2006-2021 | CTXS

Current and historical EBITDA (Earnings Before Interest, Taxes, Depreciation and Amortization) margin for Citrix Systems (CTXS) over the last 10 years. The current EBITDA margin for Citrix Systems as of June 30, 2021 is .
Citrix Systems EBITDA Margin Historical Data
Date TTM Revenue TTM EBITDA EBITDA Margin
2021-06-30 $3.17B $0.70B 22.24%
2021-03-31 $3.15B $0.73B 23.10%
2020-12-31 $3.24B $0.82B 25.33%
2020-09-30 $3.24B $0.87B 27.00%
2020-06-30 $3.20B $0.87B 27.29%
2020-03-31 $3.15B $0.85B 26.96%
2019-12-31 $3.01B $0.78B 25.91%
2019-09-30 $3.00B $0.80B 26.61%
2019-06-30 $3.00B $0.84B 27.91%
2019-03-31 $3.00B $0.87B 28.88%
2018-12-31 $2.97B $0.90B 30.17%
2018-09-30 $2.95B $0.89B 30.01%
2018-06-30 $2.91B $0.85B 29.37%
2018-03-31 $2.86B $0.82B 28.82%
2017-12-31 $2.83B $0.78B 27.58%
2017-09-30 $2.78B $0.78B 28.11%
2017-06-30 $2.76B $0.78B 28.12%
2017-03-31 $2.74B $0.80B 29.15%
2016-12-31 $2.74B $0.78B 28.35%
2016-09-30 $2.28B $0.56B 24.46%
2016-06-30 $2.42B $0.58B 24.08%
2016-03-31 $2.54B $0.59B 23.15%
2015-12-31 $2.65B $0.57B 21.39%
2015-09-30 $3.22B $0.75B 23.40%
2015-06-30 $3.17B $0.68B 21.46%
2015-03-31 $3.15B $0.64B 20.30%
2014-12-31 $3.14B $0.66B 20.87%
2014-09-30 $3.09B $0.67B 21.53%
2014-06-30 $3.05B $0.69B 22.54%
2014-03-31 $3.00B $0.67B 22.36%
2013-12-31 $2.92B $0.65B 22.24%
2013-09-30 $2.86B $0.63B 21.88%
2013-06-30 $2.78B $0.61B 21.91%
2013-03-31 $2.67B $0.60B 22.33%
2012-12-31 $2.59B $0.61B 23.40%
2012-09-30 $2.46B $0.58B 23.46%
2012-06-30 $2.39B $0.59B 24.50%
2012-03-31 $2.30B $0.59B 25.56%
2011-12-31 $2.21B $0.58B 26.11%
2011-09-30 $2.12B $0.55B 25.79%
2011-06-30 $2.02B $0.51B 25.40%
2011-03-31 $1.95B $0.49B 25.12%
2010-12-31 $1.87B $0.46B 24.49%
2010-09-30 $1.80B $0.42B 23.62%
2010-06-30 $1.72B $0.40B 23.09%
2010-03-31 $1.66B $0.36B 21.94%
2009-12-31 $1.61B $0.32B 19.64%
2009-09-30 $1.58B $0.30B 19.00%
2009-06-30 $1.58B $0.29B 18.26%
2009-03-31 $1.58B $0.27B 17.39%
2008-12-31 $1.58B $0.29B 18.50%
2008-09-30 $1.57B $0.27B 17.28%
2008-06-30 $1.52B $0.27B 17.97%
2008-03-31 $1.46B $0.29B 19.71%
2007-12-31 $1.39B $0.29B 20.62%
2007-09-30 $1.31B $0.29B 22.01%
2007-06-30 $1.24B $0.27B 21.76%
2007-03-31 $1.18B $0.26B 22.00%
2006-12-31 $1.13B $0.27B 23.54%
2006-09-30 $1.08B $0.27B 25.14%
2006-06-30 $1.03B $0.27B 26.09%
2006-03-31 $0.97B $0.26B 27.30%
2005-12-31 $0.91B $0.25B 27.94%
Sector Industry Market Cap Revenue
Computer and Technology Computer Software $13.784B $3.237B
Citrix Systems, Inc. aims to power a world where people, organizations and things are securely connected and accessible to make the extraordinary possible. They help customers reimaging the future of work by providing the most comprehensive secure digital workspace that unifies the apps, data and services people need to be productive, and simplifies IT's ability to adopt and manage complex cloud environments. Citrix Systems become the leader in Workspace as a Service (WaaS) by delivering the industry's most comprehensive and integrated platform for secure app, data and network delivery as a service in the Citrix Cloud. Citrix Systems become the preferred and most-used solution for enterprise file synchronization and sharing (EFSS) for business users across all segments.
Stock Name Country Market Cap PE Ratio
Microsoft (MSFT) United States $2293.695B 38.30
Adobe (ADBE) United States $316.858B 68.29
Salesforce, Inc (CRM) United States $254.892B 76.13
Oracle (ORCL) United States $238.906B 20.63
SAP SE (SAP) Germany $177.961B 22.63
Intuit (INTU) United States $156.449B 76.38
Dassault Systemes SA (DASTY) France $79.473B 69.78
Autodesk (ADSK) United States $63.906B 106.87
VMware (VMW) United States $58.579B 27.54
Synopsys (SNPS) United States $51.146B 69.87
Cadence Design Systems (CDNS) United States $46.391B 64.96
ANSYS (ANSS) United States $32.676B 65.70
SS&C Technologies Holdings (SSNC) United States $18.141B 16.26
Nuance Communications (NUAN) United States $17.377B 153.47
PTC (PTC) United States $14.731B 51.43
Open Text (OTEX) Canada $14.256B 16.24
Pegasystems (PEGA) United States $10.749B 0.00
Manhattan Associates (MANH) United States $10.124B 107.89
Aspen Technology (AZPN) United States $8.597B 38.15
Trend Micro (TMICY) Japan $8.141B 30.45
Descartes Systems Group (DSGX) Canada $6.970B 99.24
MicroStrategy (MSTR) United States $6.170B 114.47
BlackBerry (BB) Canada $5.761B 254.00
Cornerstone OnDemand (CSOD) United States $3.820B 22.18
ACI Worldwide (ACIW) United States $3.744B 21.83
CommVault Systems (CVLT) United States $3.594B 93.29
Blackbaud (BLKB) United States $3.321B 56.61
Verint Systems (VRNT) United States $2.928B 21.22
Progress Software (PRGS) United States $2.021B 15.61
Bottomline Technologies (EPAY) United States $1.861B 177.30
QAD (QADB) United States $1.828B 120.83
PROS Holdings (PRO) United States $1.762B 0.00
Sapiens (SPNS) Israel $1.544B 27.64
Canaan (CAN) China $1.227B 0.00
OptimizeRx (OPRX) United States $1.225B 631.91
Avid Technology (AVID) United States $1.204B 30.00
Magic Software Enterprises (MGIC) Israel $1.022B 24.81
Simulations Plus (SLP) United States $0.888B 77.39
American Software (AMSWA) United States $0.835B 89.57
Icad Inc (ICAD) United States $0.259B 0.00
Smith Micro Software (SMSI) United States $0.253B 0.00
ServiceSource (SREV) United States $0.134B 0.00
Park City (PCYG) United States $0.103B 48.27
Neonode (NEON) Sweden $0.067B 0.00
BSQUARE (BSQR) United States $0.050B 0.00
NetSol Technologies (NTWK) United States $0.044B 17.73
GSE Systems (GVP) United States $0.028B 0.00